Time,TemperatureF,DewpointF,PressureIn,WindDirection,WindDirectionDegrees,WindSpeedMPH,WindSpeedGustMPH,Humidity,HourlyPrecipIn,Conditions,Clouds,dailyrainin,SoftwareType,DateUTC
2013-06-20 00:00:00,53.0,50.1,29.90,South,187,0.0,0.0,90,0.00,,,0.35,Wunderground v.1.15,2013-06-20 04:00:00,
2013-06-20 00:01:00,52.9,50.0,29.90,South,186,0.0,0.0,90,0.00,,,0.35,Wunderground v.1.15,2013-06-20 04:01:00,
2013-06-20 00:03:00,52.8,49.9,29.90,South,187,0.0,0.0,90,0.00,,,0.35,Wunderground v.1.15,2013-06-20 04:03:00,
2013-06-20 00:04:00,52.8,49.9,29.90,South,187,0.0,0.0,90,0.00,,,0.00,Wunderground v.1.15,2013-06-20 04:04:00,
2013-06-20 00:07:00,52.6,50.0,29.90,South,187,0.0,0.0,91,0.00,,,0.00,Wunderground v.1.15,2013-06-20 04:07:00,
2013-06-20 00:10:00,52.5,49.9,29.90,South,187,0.0,0.0,91,0.00,,,0.00,Wunderground v.1.15,2013-06-20 04:10:00,
2013-06-20 00:16:00,52.3,49.8,29.90,South,187,0.0,0.0,91,0.00,,,0.00,Wunderground v.1.15,2013-06-20 04:16:00,
2013-06-20 00:22:00,52.2,49.9,29.90,South,186,0.0,0.0,92,0.00,,,0.00,Wunderground v.1.15,2013-06-20 04:22:00,
2013-06-20 00:27:00,52.1,49.8,29.90,South,187,0.0,0.0,92,0.00,,,0.00,Wunderground v.1.15,2013-06-20 04:27:00,
2013-06-20 00:33:00,52.1,49.8,29.91,South,186,0.0,0.0,92,0.00,,,0.00,Wunderground v.1.15,2013-06-20 04:33:00,
2013-06-20 00:39:00,51.9,49.6,29.91,South,186,0.0,0.0,92,0.00,,,0.00,Wunderground v.1.15,2013-06-20 04:39:00,
2013-06-20 00:44:00,51.7,49.5,29.91,South,187,0.0,0.0,92,0.00,,,0.00,Wunderground v.1.15,2013-06-20 04:44:00,
2013-06-20 00:50:00,51.5,49.3,29.91,South,187,0.0,0.0,92,0.00,,,0.00,Wunderground v.1.15,2013-06-20 04:50:00,
2013-06-20 00:56:00,51.4,49.4,29.92,South,187,0.0,0.0,93,0.00,,,0.00,Wunderground v.1.15,2013-06-20 04:56:00,
2013-06-20 01:01:00,51.3,49.3,29.91,South,187,0.0,0.0,93,0.00,,,0.00,Wunderground v.1.15,2013-06-20 05:01:00,
2013-06-20 01:07:00,51.3,49.3,29.91,South,187,0.0,0.0,93,0.00,,,0.00,Wunderground v.1.15,2013-06-20 05:07:00,
2013-06-20 01:12:00,51.3,49.3,29.91,South,186,0.0,0.0,93,0.00,,,0.00,Wunderground v.1.15,2013-06-20 05:12:00,
2013-06-20 01:18:00,51.3,49.3,29.91,South,187,0.0,0.0,93,0.00,,,0.00,Wunderground v.1.15,2013-06-20 05:18:00,
2013-06-20 01:24:00,51.2,49.2,29.91,South,186,0.0,0.0,93,0.00,,,0.00,Wunderground v.1.15,2013-06-20 05:24:00,
2013-06-20 01:30:00,51.2,49.2,29.91,South,187,0.0,0.0,93,0.00,,,0.00,Wunderground v.1.15,2013-06-20 05:30:00,
2013-06-20 01:36:00,51.1,49.1,29.91,South,186,0.0,0.0,93,0.00,,,0.00,Wunderground v.1.15,2013-06-20 05:36:00,
2013-06-20 01:42:00,51.1,49.1,29.92,South,187,0.0,0.0,93,0.00,,,0.00,Wunderground v.1.15,2013-06-20 05:42:00,
2013-06-20 01:48:00,51.0,49.0,29.92,South,187,0.0,0.0,93,0.00,,,0.00,Wunderground v.1.15,2013-06-20 05:48:00,
2013-06-20 01:53:00,51.0,49.0,29.91,South,187,0.0,0.0,93,0.00,,,0.00,Wunderground v.1.15,2013-06-20 05:53:00,
2013-06-20 01:59:00,50.8,49.1,29.91,South,186,0.0,0.0,94,0.00,,,0.00,Wunderground v.1.15,2013-06-20 05:59:00,
2013-06-20 02:05:00,50.7,49.0,29.91,South,187,0.0,0.0,94,0.00,,,0.00,Wunderground v.1.15,2013-06-20 06:05:00,
2013-06-20 02:11:00,50.6,48.9,29.92,South,187,0.0,0.0,94,0.00,,,0.00,Wunderground v.1.15,2013-06-20 06:11:00,
2013-06-20 02:17:00,50.4,48.5,29.92,South,187,0.0,0.0,93,0.00,,,0.00,Wunderground v.1.15,2013-06-20 06:17:00,
2013-06-20 02:23:00,50.4,48.7,29.92,South,187,0.0,0.0,94,0.00,,,0.00,Wunderground v.1.15,2013-06-20 06:23:00,
2013-06-20 02:29:00,50.3,48.6,29.92,South,187,0.0,0.0,94,0.00,,,0.00,Wunderground v.1.15,2013-06-20 06:29:00,
2013-06-20 02:34:00,50.2,48.5,29.92,South,187,0.0,0.0,94,0.00,,,0.00,Wunderground v.1.15,2013-06-20 06:34:00,
2013-06-20 02:40:00,50.0,48.3,29.92,South,187,0.0,0.0,94,0.00,,,0.00,Wunderground v.1.15,2013-06-20 06:40:00,
2013-06-20 02:46:00,50.0,48.3,29.92,South,187,0.0,0.0,94,0.00,,,0.00,Wunderground v.1.15,2013-06-20 06:46:00,
2013-06-20 02:51:00,49.9,48.5,29.92,South,187,0.0,0.0,95,0.00,,,0.00,Wunderground v.1.15,2013-06-20 06:51:00,
2013-06-20 02:57:00,49.8,48.4,29.93,South,187,0.0,0.0,95,0.00,,,0.00,Wunderground v.1.15,2013-06-20 06:57:00,
2013-06-20 03:03:00,49.7,48.0,29.93,South,187,0.0,0.0,94,0.00,,,0.00,Wunderground v.1.15,2013-06-20 07:03:00,
2013-06-20 03:09:00,49.6,47.9,29.93,South,187,0.0,0.0,94,0.00,,,0.00,Wunderground v.1.15,2013-06-20 07:09:00,
2013-06-20 03:15:00,49.5,48.1,29.93,South,187,0.0,0.0,95,0.00,,,0.00,Wunderground v.1.15,2013-06-20 07:15:00,
2013-06-20 03:21:00,49.4,48.0,29.93,South,187,0.0,0.0,95,0.00,,,0.00,Wunderground v.1.15,2013-06-20 07:21:00,
2013-06-20 03:27:00,49.4,48.0,29.93,South,186,0.0,0.0,95,0.00,,,0.00,Wunderground v.1.15,2013-06-20 07:27:00,
2013-06-20 03:32:00,49.4,48.0,29.93,South,187,0.0,0.0,95,0.00,,,0.00,Wunderground v.1.15,2013-06-20 07:32:00,
2013-06-20 03:38:00,49.3,47.9,29.93,South,187,0.0,0.0,95,0.00,,,0.00,Wunderground v.1.15,2013-06-20 07:38:00,
2013-06-20 03:44:00,49.3,47.9,29.93,South,186,0.0,0.0,95,0.00,,,0.00,Wunderground v.1.15,2013-06-20 07:44:00,
2013-06-20 03:50:00,49.3,47.9,29.93,South,186,0.0,0.0,95,0.00,,,0.00,Wunderground v.1.15,2013-06-20 07:50:00,
2013-06-20 03:56:00,49.3,47.9,29.94,South,187,0.0,0.0,95,0.00,,,0.00,Wunderground v.1.15,2013-06-20 07:56:00,
2013-06-20 04:02:00,49.3,47.6,29.94,South,187,0.0,0.0,94,0.00,,,0.00,Wunderground v.1.15,2013-06-20 08:02:00,
2013-06-20 04:08:00,49.2,47.5,29.94,South,187,0.0,0.0,94,0.00,,,0.00,Wunderground v.1.15,2013-06-20 08:08:00,
2013-06-20 04:14:00,49.2,47.5,29.94,South,187,0.0,0.0,94,0.00,,,0.00,Wunderground v.1.15,2013-06-20 08:14:00,
2013-06-20 04:19:00,49.2,47.5,29.94,South,187,0.0,0.0,94,0.00,,,0.00,Wunderground v.1.15,2013-06-20 08:19:00,
2013-06-20 04:25:00,49.2,47.5,29.94,South,187,0.0,0.0,94,0.00,,,0.00,Wunderground v.1.15,2013-06-20 08:25:00,
2013-06-20 04:31:00,49.2,47.3,29.94,South,187,0.0,0.0,93,0.00,,,0.00,Wunderground v.1.15,2013-06-20 08:31:00,
2013-06-20 04:37:00,49.1,47.4,29.94,South,187,0.0,0.0,94,0.00,,,0.00,Wunderground v.1.15,2013-06-20 08:37:00,
2013-06-20 04:43:00,49.0,47.1,29.94,South,187,0.0,0.0,93,0.00,,,0.00,Wunderground v.1.15,2013-06-20 08:43:00,
2013-06-20 04:49:00,48.8,46.9,29.94,South,187,0.0,0.0,93,0.00,,,0.00,Wunderground v.1.15,2013-06-20 08:49:00,
2013-06-20 04:55:00,48.8,46.9,29.95,South,187,0.0,0.0,93,0.00,,,0.00,Wunderground v.1.15,2013-06-20 08:55:00,
2013-06-20 05:00:00,48.7,46.8,29.95,South,187,0.0,0.0,93,0.00,,,0.00,Wunderground v.1.15,2013-06-20 09:00:00,
2013-06-20 05:05:00,48.7,47.1,29.95,South,187,0.0,0.0,94,0.00,,,0.00,Wunderground v.1.15,2013-06-20 09:05:00,
2013-06-20 05:11:00,48.6,47.0,29.95,South,187,0.0,0.0,94,0.00,,,0.00,Wunderground v.1.15,2013-06-20 09:11:00,
2013-06-20 05:17:00,48.5,46.9,29.95,South,187,0.0,0.0,94,0.00,,,0.00,Wunderground v.1.15,2013-06-20 09:17:00,
2013-06-20 05:23:00,48.4,46.8,29.96,South,187,0.0,0.0,94,0.00,,,0.00,Wunderground v.1.15,2013-06-20 09:23:00,
2013-06-20 05:29:00,48.4,46.8,29.96,South,186,0.0,0.0,94,0.00,,,0.00,Wunderground v.1.15,2013-06-20 09:29:00,
2013-06-20 05:35:00,48.4,47.0,29.96,South,187,0.0,0.0,95,0.00,,,0.00,Wunderground v.1.15,2013-06-20 09:35:00,
2013-06-20 05:41:00,48.4,47.0,29.97,South,186,0.0,0.0,95,0.00,,,0.00,Wunderground v.1.15,2013-06-20 09:41:00,
2013-06-20 05:46:00,48.5,47.1,29.97,South,187,0.0,0.0,95,0.00,,,0.00,Wunderground v.1.15,2013-06-20 09:46:00,
2013-06-20 05:52:00,48.5,47.1,29.97,South,187,0.0,0.0,95,0.00,,,0.00,Wunderground v.1.15,2013-06-20 09:52:00,
2013-06-20 05:58:00,48.6,47.2,29.97,South,186,0.0,0.0,95,0.00,,,0.00,Wunderground v.1.15,2013-06-20 09:58:00,
2013-06-20 06:04:00,48.7,47.3,29.98,South,187,0.0,0.0,95,0.00,,,0.00,Wunderground v.1.15,2013-06-20 10:04:00,
2013-06-20 06:10:00,48.9,47.5,29.97,South,187,0.0,0.0,95,0.00,,,0.00,Wunderground v.1.15,2013-06-20 10:10:00,
2013-06-20 06:16:00,49.1,47.7,29.97,South,187,0.0,0.0,95,0.00,,,0.00,Wunderground v.1.15,2013-06-20 10:16:00,
2013-06-20 06:22:00,49.3,48.2,29.97,South,187,0.0,0.0,96,0.00,,,0.00,Wunderground v.1.15,2013-06-20 10:22:00,
2013-06-20 06:27:00,49.5,48.4,29.98,South,187,0.0,0.0,96,0.00,,,0.00,Wunderground v.1.15,2013-06-20 10:27:00,
2013-06-20 06:33:00,49.8,48.7,29.98,South,187,0.0,0.0,96,0.00,,,0.00,Wunderground v.1.15,2013-06-20 10:33:00,
2013-06-20 06:39:00,49.9,48.8,29.98,South,187,0.0,0.0,96,0.00,,,0.00,Wunderground v.1.15,2013-06-20 10:39:00,
2013-06-20 06:45:00,50.1,49.0,29.98,South,187,0.0,0.0,96,0.00,,,0.00,Wunderground v.1.15,2013-06-20 10:45:00,
2013-06-20 06:51:00,50.5,49.4,29.98,South,187,0.0,0.0,96,0.00,,,0.00,Wunderground v.1.15,2013-06-20 10:51:00,
2013-06-20 06:57:00,51.0,49.9,29.99,South,186,0.0,0.0,96,0.00,,,0.00,Wunderground v.1.15,2013-06-20 10:57:00,
2013-06-20 07:03:00,51.3,50.2,29.99,South,186,0.0,0.0,96,0.00,,,0.00,Wunderground v.1.15,2013-06-20 11:03:00,
2013-06-20 07:08:00,51.7,50.6,29.99,South,187,0.0,0.0,96,0.00,,,0.00,Wunderground v.1.15,2013-06-20 11:08:00,
2013-06-20 07:14:00,52.1,51.0,29.99,South,187,0.0,0.0,96,0.00,,,0.00,Wunderground v.1.15,2013-06-20 11:14:00,
2013-06-20 07:20:00,52.7,51.9,29.99,South,187,0.0,0.0,97,0.00,,,0.00,Wunderground v.1.15,2013-06-20 11:20:00,
2013-06-20 07:25:00,53.1,52.3,29.99,South,187,0.0,0.0,97,0.00,,,0.00,Wunderground v.1.15,2013-06-20 11:25:00,
2013-06-20 07:31:00,53.6,52.5,30.00,South,187,0.0,0.0,96,0.00,,,0.00,Wunderground v.1.15,2013-06-20 11:31:00,
2013-06-20 07:36:00,54.1,53.3,30.00,South,187,0.0,0.0,97,0.00,,,0.00,Wunderground v.1.15,2013-06-20 11:36:00,
2013-06-20 07:42:00,54.7,53.6,30.00,South,187,0.0,0.0,96,0.00,,,0.00,Wunderground v.1.15,2013-06-20 11:42:00,
2013-06-20 07:48:00,55.2,54.1,30.00,South,187,0.0,0.0,96,0.00,,,0.00,Wunderground v.1.15,2013-06-20 11:48:00,
2013-06-20 07:54:00,55.6,54.5,30.00,South,187,0.0,0.0,96,0.00,,,0.00,Wunderground v.1.15,2013-06-20 11:54:00,
2013-06-20 08:00:00,56.1,55.0,30.00,South,187,0.0,0.0,96,0.00,,,0.00,Wunderground v.1.15,2013-06-20 12:00:00,
2013-06-20 08:05:00,56.6,55.2,30.00,South,187,0.0,0.0,95,0.00,,,0.00,Wunderground v.1.15,2013-06-20 12:05:00,
2013-06-20 08:10:00,57.0,55.3,30.00,South,187,0.0,0.0,94,0.00,,,0.00,Wunderground v.1.15,2013-06-20 12:10:00,
2013-06-20 08:16:00,57.5,55.5,30.01,South,187,0.0,0.0,93,0.00,,,0.00,Wunderground v.1.15,2013-06-20 12:16:00,
2013-06-20 08:22:00,58.0,55.7,30.01,South,187,0.0,0.0,92,0.00,,,0.00,Wunderground v.1.15,2013-06-20 12:22:00,
2013-06-20 08:28:00,58.3,55.1,30.01,South,187,0.0,0.0,89,0.00,,,0.00,Wunderground v.1.15,2013-06-20 12:28:00,
2013-06-20 08:34:00,59.0,55.4,30.01,South,187,0.0,0.0,88,0.00,,,0.00,Wunderground v.1.15,2013-06-20 12:34:00,
2013-06-20 08:40:00,59.4,55.8,30.01,South,187,0.0,0.0,88,0.00,,,0.00,Wunderground v.1.15,2013-06-20 12:40:00,
2013-06-20 08:45:00,59.9,54.4,30.01,South,187,0.0,0.0,82,0.00,,,0.00,Wunderground v.1.15,2013-06-20 12:45:00,
2013-06-20 08:51:00,60.5,55.6,30.00,South,187,0.0,0.0,84,0.00,,,0.00,Wunderground v.1.15,2013-06-20 12:51:00,
2013-06-20 08:56:00,61.0,54.4,30.00,South,187,0.0,0.0,79,0.00,,,0.00,Wunderground v.1.15,2013-06-20 12:56:00,
2013-06-20 09:02:00,61.3,53.7,30.00,South,187,0.0,0.0,76,0.00,,,0.00,Wunderground v.1.15,2013-06-20 13:02:00,
2013-06-20 09:07:00,61.7,54.1,30.00,South,187,0.0,0.0,76,0.00,,,0.00,Wunderground v.1.15,2013-06-20 13:07:00,
2013-06-20 09:13:00,62.2,54.5,30.00,South,187,0.0,0.0,76,0.00,,,0.00,Wunderground v.1.15,2013-06-20 13:13:00,
2013-06-20 09:18:00,62.5,53.0,30.00,South,187,0.0,0.0,71,0.00,,,0.00,Wunderground v.1.15,2013-06-20 13:18:00,
2013-06-20 09:24:00,63.3,52.6,30.00,South,187,0.0,0.0,68,0.00,,,0.00,Wunderground v.1.15,2013-06-20 13:24:00,
2013-06-20 09:30:00,64.3,54.7,30.00,South,187,0.0,0.0,71,0.00,,,0.00,Wunderground v.1.15,2013-06-20 13:30:00,
2013-06-20 09:36:00,65.0,56.1,30.00,South,187,0.0,0.0,73,0.00,,,0.00,Wunderground v.1.15,2013-06-20 13:36:00,
2013-06-20 09:42:00,65.3,56.8,30.00,South,187,0.0,0.0,74,0.00,,,0.00,Wunderground v.1.15,2013-06-20 13:42:00,
2013-06-20 09:47:00,65.5,56.2,30.00,South,187,0.0,0.0,72,0.00,,,0.00,Wunderground v.1.15,2013-06-20 13:47:00,
2013-06-20 09:53:00,65.7,57.2,30.00,South,187,0.0,0.0,74,0.00,,,0.00,Wunderground v.1.15,2013-06-20 13:53:00,
2013-06-20 09:59:00,65.8,56.5,30.00,South,187,0.0,0.0,72,0.00,,,0.00,Wunderground v.1.15,2013-06-20 13:59:00,
2013-06-20 10:05:00,66.0,55.9,30.00,South,187,0.0,0.0,70,0.00,,,0.00,Wunderground v.1.15,2013-06-20 14:05:00,
2013-06-20 10:11:00,66.3,55.4,29.99,South,187,0.0,0.0,68,0.00,,,0.00,Wunderground v.1.15,2013-06-20 14:11:00,
2013-06-20 10:17:00,67.0,55.7,29.99,South,187,0.0,0.0,67,0.00,,,0.00,Wunderground v.1.15,2013-06-20 14:17:00,
2013-06-20 10:22:00,67.8,57.3,29.99,South,187,0.0,0.0,69,0.00,,,0.00,Wunderground v.1.15,2013-06-20 14:22:00,
2013-06-20 10:28:00,68.3,57.3,29.99,South,187,0.0,0.0,68,0.00,,,0.00,Wunderground v.1.15,2013-06-20 14:28:00,
2013-06-20 10:34:00,68.5,55.8,29.99,South,187,0.0,0.0,64,0.00,,,0.00,Wunderground v.1.15,2013-06-20 14:34:00,
2013-06-20 10:40:00,68.8,55.2,29.99,South,187,0.0,0.0,62,0.00,,,0.00,Wunderground v.1.15,2013-06-20 14:40:00,
2013-06-20 10:46:00,69.0,55.4,29.99,South,187,0.0,0.0,62,0.00,,,0.00,Wunderground v.1.15,2013-06-20 14:46:00,
2013-06-20 10:52:00,69.3,56.6,29.99,South,187,0.0,0.0,64,0.00,,,0.00,Wunderground v.1.15,2013-06-20 14:52:00,
2013-06-20 10:58:00,69.4,56.7,29.99,South,187,0.0,0.0,64,0.00,,,0.00,Wunderground v.1.15,2013-06-20 14:58:00,
2013-06-20 11:04:00,69.4,55.4,30.00,South,187,0.0,0.0,61,0.00,,,0.00,Wunderground v.1.15,2013-06-20 15:04:00,
2013-06-20 11:09:00,69.7,54.7,30.00,South,187,0.0,0.0,59,0.00,,,0.00,Wunderground v.1.15,2013-06-20 15:09:00,
2013-06-20 11:15:00,70.1,54.6,29.99,South,187,0.0,0.0,58,0.00,,,0.00,Wunderground v.1.15,2013-06-20 15:15:00,
2013-06-20 11:21:00,70.4,59.3,29.99,South,187,0.0,0.0,68,0.00,,,0.00,Wunderground v.1.15,2013-06-20 15:21:00,
2013-06-20 11:27:00,70.4,52.4,30.00,ESE,116,0.0,0.0,53,0.00,,,0.00,Wunderground v.1.15,2013-06-20 15:27:00,
2013-06-20 11:33:00,70.4,54.0,30.00,South,175,0.0,0.0,56,0.00,,,0.00,Wunderground v.1.15,2013-06-20 15:33:00,
2013-06-20 11:39:00,70.3,55.3,30.00,South,175,0.0,0.0,59,0.00,,,0.00,Wunderground v.1.15,2013-06-20 15:39:00,
2013-06-20 11:44:00,70.1,53.7,30.00,South,175,0.0,0.0,56,0.00,,,0.00,Wunderground v.1.15,2013-06-20 15:44:00,
2013-06-20 11:50:00,70.7,55.7,29.99,South,177,0.0,0.0,59,0.00,,,0.00,Wunderground v.1.15,2013-06-20 15:50:00,
2013-06-20 11:56:00,71.1,52.6,30.00,WNW,294,0.0,0.0,52,0.00,,,0.00,Wunderground v.1.15,2013-06-20 15:56:00,
2013-06-20 12:01:00,71.8,53.7,29.99,East,82,0.0,0.0,53,0.00,,,0.00,Wunderground v.1.15,2013-06-20 16:01:00,
2013-06-20 12:07:00,72.4,53.2,29.99,East,82,0.0,0.0,51,0.00,,,0.00,Wunderground v.1.15,2013-06-20 16:07:00,
2013-06-20 12:12:00,72.6,53.4,29.99,SSW,203,0.0,2.0,51,0.00,,,0.00,Wunderground v.1.15,2013-06-20 16:12:00,
2013-06-20 12:18:00,73.0,54.9,29.99,SE,138,0.0,2.0,53,0.00,,,0.00,Wunderground v.1.15,2013-06-20 16:18:00,
2013-06-20 12:24:00,73.2,57.5,29.99,SE,139,0.0,0.0,58,0.00,,,0.00,Wunderground v.1.15,2013-06-20 16:24:00,
2013-06-20 12:30:00,73.6,53.3,29.99,East,101,0.0,0.0,49,0.00,,,0.00,Wunderground v.1.15,2013-06-20 16:30:00,
2013-06-20 12:36:00,74.2,52.1,29.99,SE,125,0.0,0.0,46,0.00,,,0.00,Wunderground v.1.15,2013-06-20 16:36:00,
2013-06-20 12:42:00,75.4,52.6,29.99,WSW,248,0.0,0.0,45,0.00,,,0.00,Wunderground v.1.15,2013-06-20 16:42:00,
2013-06-20 12:47:00,75.9,52.4,29.99,WNW,286,0.0,2.0,44,0.00,,,0.00,Wunderground v.1.15,2013-06-20 16:47:00,
2013-06-20 12:53:00,76.1,55.0,29.99,East,94,0.0,0.0,48,0.00,,,0.00,Wunderground v.1.15,2013-06-20 16:53:00,
2013-06-20 12:58:00,76.4,52.2,29.99,West,276,1.0,1.0,43,0.00,,,0.00,Wunderground v.1.15,2013-06-20 16:58:00,
2013-06-20 13:04:00,77.1,51.6,29.99,WNW,294,1.0,1.0,41,0.00,,,0.00,Wunderground v.1.15,2013-06-20 17:04:00,
2013-06-20 13:10:00,77.4,51.9,29.99,ESE,105,0.0,3.0,41,0.00,,,0.00,Wunderground v.1.15,2013-06-20 17:10:00,
2013-06-20 13:15:00,77.9,53.6,29.99,SSW,206,0.0,3.0,43,0.00,,,0.00,Wunderground v.1.15,2013-06-20 17:15:00,
2013-06-20 13:21:00,77.9,56.0,29.98,WSW,256,0.0,0.0,47,0.00,,,0.00,Wunderground v.1.15,2013-06-20 17:21:00,
2013-06-20 13:27:00,77.3,54.3,29.98,ESE,115,0.0,2.0,45,0.00,,,0.00,Wunderground v.1.15,2013-06-20 17:27:00,
2013-06-20 13:33:00,77.2,55.4,29.98,ESE,123,0.0,0.0,47,0.00,,,0.00,Wunderground v.1.15,2013-06-20 17:33:00,
2013-06-20 13:39:00,77.6,56.9,29.98,WSW,252,0.0,2.0,49,0.00,,,0.00,Wunderground v.1.15,2013-06-20 17:39:00,
2013-06-20 13:45:00,78.0,57.9,29.98,ESE,109,0.0,0.0,50,0.00,,,0.00,Wunderground v.1.15,2013-06-20 17:45:00,
2013-06-20 13:51:00,78.2,55.7,29.97,East,91,0.0,2.0,46,0.00,,,0.00,Wunderground v.1.15,2013-06-20 17:51:00,
2013-06-20 13:56:00,78.4,58.8,29.98,East,90,0.0,2.0,51,0.00,,,0.00,Wunderground v.1.15,2013-06-20 17:56:00,
2013-06-20 14:02:00,79.1,53.4,29.97,ESE,103,0.0,1.0,41,0.00,,,0.00,Wunderground v.1.15,2013-06-20 18:02:00,
2013-06-20 14:08:00,79.4,58.0,29.97,East,91,1.0,4.0,48,0.00,,,0.00,Wunderground v.1.15,2013-06-20 18:08:00,
2013-06-20 14:14:00,79.6,53.8,29.97,ESE,121,0.0,1.0,41,0.00,,,0.00,Wunderground v.1.15,2013-06-20 18:14:00,
2013-06-20 14:19:00,78.8,56.3,29.97,SE,127,0.0,1.0,46,0.00,,,0.00,Wunderground v.1.15,2013-06-20 18:19:00,
2013-06-20 14:25:00,78.7,53.7,29.97,WSW,251,0.0,2.0,42,0.00,,,0.00,Wunderground v.1.15,2013-06-20 18:25:00,
2013-06-20 14:31:00,78.9,57.0,29.97,NNW,348,0.0,0.0,47,0.00,,,0.00,Wunderground v.1.15,2013-06-20 18:31:00,
2013-06-20 14:37:00,78.3,58.1,29.97,NNE,32,0.0,1.0,50,0.00,,,0.00,Wunderground v.1.15,2013-06-20 18:37:00,
2013-06-20 14:43:00,78.9,57.5,29.97,NNW,331,0.0,0.0,48,0.00,,,0.00,Wunderground v.1.15,2013-06-20 18:43:00,
2013-06-20 14:49:00,79.8,58.9,29.97,South,185,0.0,1.0,49,0.00,,,0.00,Wunderground v.1.15,2013-06-20 18:49:00,
2013-06-20 14:54:00,80.4,57.1,29.97,WNW,284,0.0,1.0,45,0.00,,,0.00,Wunderground v.1.15,2013-06-20 18:54:00,
2013-06-20 15:00:00,80.8,55.6,29.97,ESE,106,0.0,0.0,42,0.00,,,0.00,Wunderground v.1.15,2013-06-20 19:00:00,
2013-06-20 15:05:00,80.8,54.9,29.97,ENE,78,0.0,6.0,41,0.00,,,0.00,Wunderground v.1.15,2013-06-20 19:05:00,
2013-06-20 15:11:00,80.6,57.9,29.96,East,80,0.0,0.0,46,0.00,,,0.00,Wunderground v.1.15,2013-06-20 19:11:00,
2013-06-20 15:16:00,81.4,63.2,29.97,ENE,78,0.0,0.0,54,0.00,,,0.00,Wunderground v.1.15,2013-06-20 19:16:00,
2013-06-20 15:22:00,81.9,59.1,29.97,NE,42,0.0,1.0,46,0.00,,,0.00,Wunderground v.1.15,2013-06-20 19:22:00,
2013-06-20 15:27:00,81.6,59.4,29.96,ESE,103,0.0,1.0,47,0.00,,,0.00,Wunderground v.1.15,2013-06-20 19:27:00,
2013-06-20 15:33:00,81.0,58.9,29.96,West,273,0.0,0.0,47,0.00,,,0.00,Wunderground v.1.15,2013-06-20 19:33:00,
2013-06-20 15:39:00,81.6,58.8,29.96,East,80,0.0,2.0,46,0.00,,,0.00,Wunderground v.1.15,2013-06-20 19:39:00,
2013-06-20 15:45:00,81.6,58.2,29.96,SSW,211,0.0,0.0,45,0.00,,,0.00,Wunderground v.1.15,2013-06-20 19:45:00,
2013-06-20 15:50:00,81.7,55.0,29.96,ESE,102,0.0,0.0,40,0.00,,,0.00,Wunderground v.1.15,2013-06-20 19:50:00,
2013-06-20 15:56:00,81.7,52.1,29.96,WSW,242,0.0,0.0,36,0.00,,,0.00,Wunderground v.1.15,2013-06-20 19:56:00,
2013-06-20 16:02:00,81.8,57.8,29.95,ESE,105,0.0,3.0,44,0.00,,,0.00,Wunderground v.1.15,2013-06-20 20:02:00,
2013-06-20 16:08:00,81.5,55.5,29.96,SSW,192,0.0,3.0,41,0.00,,,0.00,Wunderground v.1.15,2013-06-20 20:08:00,
2013-06-20 16:14:00,81.7,55.7,29.95,West,281,0.0,1.0,41,0.00,,,0.00,Wunderground v.1.15,2013-06-20 20:14:00,
2013-06-20 16:19:00,81.9,60.9,29.95,West,281,0.0,1.0,49,0.00,,,0.00,Wunderground v.1.15,2013-06-20 20:19:00,
2013-06-20 16:25:00,81.9,52.3,29.95,East,88,0.0,2.0,36,0.00,,,0.00,Wunderground v.1.15,2013-06-20 20:25:00,
2013-06-20 16:30:00,81.6,56.3,29.95,NW,311,0.0,1.0,42,0.00,,,0.00,Wunderground v.1.15,2013-06-20 20:30:00,
2013-06-20 16:36:00,80.9,51.4,29.95,ESE,123,0.0,1.0,36,0.00,,,0.00,Wunderground v.1.15,2013-06-20 20:36:00,
2013-06-20 16:42:00,80.2,59.9,29.95,South,175,0.0,0.0,50,0.00,,,0.00,Wunderground v.1.15,2013-06-20 20:42:00,
2013-06-20 16:47:00,79.3,51.5,29.95,WSW,252,0.0,2.0,38,0.00,,,0.00,Wunderground v.1.15,2013-06-20 20:47:00,
2013-06-20 16:53:00,78.7,60.1,29.95,WSW,252,0.0,0.0,53,0.00,,,0.00,Wunderground v.1.15,2013-06-20 20:53:00,
2013-06-20 16:59:00,77.7,52.8,29.95,ESE,117,0.0,0.0,42,0.00,,,0.00,Wunderground v.1.15,2013-06-20 20:59:00,
2013-06-20 17:05:00,77.1,51.6,29.95,NW,321,0.0,1.0,41,0.00,,,0.00,Wunderground v.1.15,2013-06-20 21:05:00,
2013-06-20 17:11:00,76.8,54.5,29.95,East,92,0.0,0.0,46,0.00,,,0.00,Wunderground v.1.15,2013-06-20 21:11:00,
2013-06-20 17:17:00,76.6,51.8,29.95,SSE,153,0.0,1.0,42,0.00,,,0.00,Wunderground v.1.15,2013-06-20 21:17:00,
2013-06-20 17:22:00,76.7,59.8,29.95,SSE,153,0.0,0.0,56,0.00,,,0.00,Wunderground v.1.15,2013-06-20 21:22:00,
2013-06-20 17:28:00,76.2,57.8,29.95,ESE,115,0.0,1.0,53,0.00,,,0.00,Wunderground v.1.15,2013-06-20 21:28:00,
2013-06-20 17:34:00,75.7,54.6,29.95,East,101,0.0,0.0,48,0.00,,,0.00,Wunderground v.1.15,2013-06-20 21:34:00,
2013-06-20 17:40:00,75.8,58.0,29.95,ESE,119,0.0,0.0,54,0.00,,,0.00,Wunderground v.1.15,2013-06-20 21:40:00,
2013-06-20 17:46:00,75.2,59.4,29.95,ESE,119,0.0,0.0,58,0.00,,,0.00,Wunderground v.1.15,2013-06-20 21:46:00,
2013-06-20 17:52:00,74.6,54.2,29.95,SE,137,0.0,0.0,49,0.00,,,0.00,Wunderground v.1.15,2013-06-20 21:52:00,
2013-06-20 17:58:00,74.8,58.1,29.95,WNW,301,0.0,0.0,56,0.00,,,0.00,Wunderground v.1.15,2013-06-20 21:58:00,
2013-06-20 18:03:00,74.8,54.9,29.95,WNW,303,0.0,0.0,50,0.00,,,0.00,Wunderground v.1.15,2013-06-20 22:03:00,
2013-06-20 18:09:00,74.8,55.5,29.95,ESE,113,0.0,0.0,51,0.00,,,0.00,Wunderground v.1.15,2013-06-20 22:09:00,
2013-06-20 18:15:00,75.2,58.9,29.95,ESE,114,0.0,0.0,57,0.00,,,0.00,Wunderground v.1.15,2013-06-20 22:15:00,
2013-06-20 18:21:00,74.9,56.6,29.95,ESE,114,0.0,0.0,53,0.00,,,0.00,Wunderground v.1.15,2013-06-20 22:21:00,
2013-06-20 18:27:00,74.2,57.0,29.95,ESE,114,0.0,0.0,55,0.00,,,0.00,Wunderground v.1.15,2013-06-20 22:27:00,
2013-06-20 18:33:00,74.0,56.3,29.95,ESE,110,0.0,1.0,54,0.00,,,0.00,Wunderground v.1.15,2013-06-20 22:33:00,
2013-06-20 18:38:00,73.4,56.7,29.95,ESE,111,0.0,1.0,56,0.00,,,0.00,Wunderground v.1.15,2013-06-20 22:38:00,
2013-06-20 18:44:00,72.5,59.6,29.95,ESE,111,0.0,0.0,64,0.00,,,0.00,Wunderground v.1.15,2013-06-20 22:44:00,
2013-06-20 18:50:00,71.4,59.4,29.95,ESE,111,0.0,0.0,66,0.00,,,0.00,Wunderground v.1.15,2013-06-20 22:50:00,
2013-06-20 18:56:00,70.5,59.4,29.95,ESE,111,0.0,0.0,68,0.00,,,0.00,Wunderground v.1.15,2013-06-20 22:56:00,
2013-06-20 19:02:00,69.7,58.3,29.95,ESE,111,0.0,0.0,67,0.00,,,0.00,Wunderground v.1.15,2013-06-20 23:02:00,
2013-06-20 19:08:00,69.4,58.8,29.95,ESE,111,0.0,0.0,69,0.00,,,0.00,Wunderground v.1.15,2013-06-20 23:08:00,
2013-06-20 19:14:00,69.2,58.2,29.95,ESE,111,0.0,0.0,68,0.00,,,0.00,Wunderground v.1.15,2013-06-20 23:14:00,
2013-06-20 19:19:00,69.2,59.0,29.95,ESE,111,0.0,0.0,70,0.00,,,0.00,Wunderground v.1.15,2013-06-20 23:19:00,
2013-06-20 19:25:00,68.9,58.7,29.95,ESE,111,0.0,0.0,70,0.00,,,0.00,Wunderground v.1.15,2013-06-20 23:25:00,
2013-06-20 19:31:00,68.6,59.6,29.95,ESE,111,0.0,0.0,73,0.00,,,0.00,Wunderground v.1.15,2013-06-20 23:31:00,
2013-06-20 19:37:00,68.2,58.4,29.95,ESE,111,0.0,0.0,71,0.00,,,0.00,Wunderground v.1.15,2013-06-20 23:37:00,
2013-06-20 19:43:00,68.1,58.3,29.95,ESE,111,0.0,0.0,71,0.00,,,0.00,Wunderground v.1.15,2013-06-20 23:43:00,
2013-06-20 19:49:00,67.9,57.8,29.96,ESE,111,0.0,0.0,70,0.00,,,0.00,Wunderground v.1.15,2013-06-20 23:49:00,
2013-06-20 19:55:00,67.5,58.2,29.96,ESE,111,0.0,0.0,72,0.00,,,0.00,Wunderground v.1.15,2013-06-20 23:55:00,
2013-06-20 20:00:00,67.3,58.7,29.96,ESE,111,0.0,0.0,74,0.00,,,0.00,Wunderground v.1.15,2013-06-21 00:00:00,
2013-06-20 20:05:00,67.0,58.8,29.96,ESE,111,0.0,0.0,75,0.00,,,0.00,Wunderground v.1.15,2013-06-21 00:05:00,
2013-06-20 20:11:00,66.7,58.5,29.96,ESE,111,0.0,0.0,75,0.00,,,0.00,Wunderground v.1.15,2013-06-21 00:11:00,
2013-06-20 20:17:00,66.4,57.9,29.96,ESE,111,0.0,0.0,74,0.00,,,0.00,Wunderground v.1.15,2013-06-21 00:17:00,
2013-06-20 20:23:00,66.2,58.0,29.96,ESE,111,0.0,0.0,75,0.00,,,0.00,Wunderground v.1.15,2013-06-21 00:23:00,
2013-06-20 20:29:00,66.0,57.8,29.96,ESE,111,0.0,0.0,75,0.00,,,0.00,Wunderground v.1.15,2013-06-21 00:29:00,
2013-06-20 20:35:00,65.9,57.7,29.96,ESE,111,0.0,0.0,75,0.00,,,0.00,Wunderground v.1.15,2013-06-21 00:35:00,
2013-06-20 20:41:00,65.8,57.7,29.96,ESE,111,0.0,0.0,75,0.00,,,0.00,Wunderground v.1.15,2013-06-21 00:41:00,
2013-06-20 20:46:00,65.6,57.8,29.96,ESE,111,0.0,0.0,76,0.00,,,0.00,Wunderground v.1.15,2013-06-21 00:46:00,
2013-06-20 20:52:00,65.3,57.5,29.96,ESE,111,0.0,0.0,76,0.00,,,0.00,Wunderground v.1.15,2013-06-21 00:52:00,
2013-06-20 20:58:00,65.2,57.8,29.96,ESE,111,0.0,0.0,77,0.00,,,0.00,Wunderground v.1.15,2013-06-21 00:58:00,
2013-06-20 21:04:00,65.1,57.3,29.97,ESE,111,0.0,0.0,76,0.00,,,0.00,Wunderground v.1.15,2013-06-21 01:04:00,
2013-06-20 21:10:00,65.3,57.9,29.97,ESE,111,0.0,0.0,77,0.00,,,0.00,Wunderground v.1.15,2013-06-21 01:10:00,
2013-06-20 21:16:00,65.4,57.6,29.97,ESE,111,0.0,0.0,76,0.00,,,0.00,Wunderground v.1.15,2013-06-21 01:16:00,
2013-06-20 21:22:00,65.4,58.0,29.98,ESE,111,0.0,0.0,77,0.00,,,0.00,Wunderground v.1.15,2013-06-21 01:22:00,
2013-06-20 21:28:00,65.3,58.3,29.98,ESE,111,0.0,0.0,78,0.00,,,0.00,Wunderground v.1.15,2013-06-21 01:28:00,
2013-06-20 21:34:00,65.2,58.5,29.98,ESE,111,0.0,0.0,79,0.00,,,0.00,Wunderground v.1.15,2013-06-21 01:34:00,
2013-06-20 21:40:00,65.1,58.4,29.98,ESE,111,0.0,0.0,79,0.00,,,0.00,Wunderground v.1.15,2013-06-21 01:40:00,
2013-06-20 21:45:00,65.0,58.7,29.99,ESE,111,0.0,0.0,80,0.00,,,0.00,Wunderground v.1.15,2013-06-21 01:45:00,
2013-06-20 21:51:00,64.9,58.2,29.98,ESE,111,0.0,0.0,79,0.00,,,0.00,Wunderground v.1.15,2013-06-21 01:51:00,
2013-06-20 21:57:00,64.8,58.5,29.98,ESE,111,0.0,0.0,80,0.00,,,0.00,Wunderground v.1.15,2013-06-21 01:57:00,
2013-06-20 22:02:00,64.8,58.5,29.98,ESE,111,0.0,0.0,80,0.00,,,0.00,Wunderground v.1.15,2013-06-21 02:02:00,
2013-06-20 22:08:00,64.7,58.7,29.98,ENE,77,0.0,3.0,81,0.00,,,0.00,Wunderground v.1.15,2013-06-21 02:08:00,
2013-06-20 22:14:00,64.7,58.4,29.99,ENE,77,0.0,0.0,80,0.00,,,0.00,Wunderground v.1.15,2013-06-21 02:14:00,
2013-06-20 22:19:00,64.5,58.5,29.99,ENE,77,0.0,0.0,81,0.00,,,0.00,Wunderground v.1.15,2013-06-21 02:19:00,
2013-06-20 22:25:00,64.5,58.5,29.98,ENE,77,0.0,0.0,81,0.00,,,0.00,Wunderground v.1.15,2013-06-21 02:25:00,
2013-06-20 22:31:00,64.4,58.4,29.98,ENE,74,0.0,0.0,81,0.00,,,0.00,Wunderground v.1.15,2013-06-21 02:31:00,
2013-06-20 22:36:00,64.3,58.3,29.98,ENE,74,0.0,0.0,81,0.00,,,0.00,Wunderground v.1.15,2013-06-21 02:36:00,
2013-06-20 22:42:00,64.2,58.6,29.98,ENE,74,0.0,0.0,82,0.00,,,0.00,Wunderground v.1.15,2013-06-21 02:42:00,
2013-06-20 22:48:00,64.1,58.5,29.98,ENE,74,0.0,0.0,82,0.00,,,0.00,Wunderground v.1.15,2013-06-21 02:48:00,
2013-06-20 22:53:00,64.0,58.4,29.98,East,86,0.0,1.0,82,0.00,,,0.00,Wunderground v.1.15,2013-06-21 02:53:00,
2013-06-20 22:59:00,64.0,58.4,29.98,East,86,0.0,2.0,82,0.00,,,0.00,Wunderground v.1.15,2013-06-21 02:59:00,
2013-06-20 23:04:00,64.0,58.4,29.98,East,86,0.0,0.0,82,0.00,,,0.00,Wunderground v.1.15,2013-06-21 03:04:00,
2013-06-20 23:10:00,63.9,58.0,29.98,NW,306,0.0,0.0,81,0.00,,,0.00,Wunderground v.1.15,2013-06-21 03:10:00,
2013-06-20 23:15:00,63.8,58.2,29.98,NW,306,0.0,0.0,82,0.00,,,0.00,Wunderground v.1.15,2013-06-21 03:15:00,
2013-06-20 23:21:00,63.8,58.2,29.98,NE,45,0.0,0.0,82,0.00,,,0.00,Wunderground v.1.15,2013-06-21 03:21:00,
2013-06-20 23:27:00,63.6,58.0,29.98,ENE,57,0.0,0.0,82,0.00,,,0.00,Wunderground v.1.15,2013-06-21 03:27:00,
2013-06-20 23:32:00,63.5,57.9,29.98,ENE,57,0.0,0.0,82,0.00,,,0.00,Wunderground v.1.15,2013-06-21 03:32:00,
2013-06-20 23:37:00,63.4,57.8,29.99,ENE,57,0.0,1.0,82,0.00,,,0.00,Wunderground v.1.15,2013-06-21 03:37:00,
2013-06-20 23:43:00,63.2,57.6,29.98,ENE,57,0.0,0.0,82,0.00,,,0.00,Wunderground v.1.15,2013-06-21 03:43:00,
2013-06-20 23:49:00,63.0,57.4,29.99,ENE,57,0.0,0.0,82,0.00,,,0.00,Wunderground v.1.15,2013-06-21 03:49:00,
2013-06-20 23:54:00,62.8,57.6,29.99,ENE,57,0.0,0.0,83,0.00,,,0.00,Wunderground v.1.15,2013-06-21 03:54:00,